GW1335 Weather Reports


Display with metric or nautical units.
time (UTC)temp
F
wind
direction
speed
MPH
gust
MPH
rain 1hr
in
rain 24hr
in
rain mn
in
humidity
%
barometer
mb
20260906110055 73 0 1.0 5.0 0.00 0.26 0.00 92 1013.7
20260906104558 73 41 2.0 4.0 0.00 0.26 0.00 91 1013.6
20260906103111 73 42 2.0 7.0 0.00 0.26 0.00 91 1013.5
20260906101600 73 0 0.0 3.0 0.00 0.26 0.00 90 1013.4
20260906100100 73 9 0.0 7.0 0.00 0.26 0.00 89 1013.2
20260906094601 73 8 1.0 4.0 0.00 0.26 0.00 89 1013.0
20260906093059 74 6 2.0 5.0 0.00 0.26 0.00 88 1013.0
20260906091602 74 324 0.0 3.0 0.00 0.26 0.00 87 1012.9
20260906090118 74 0 0.0 6.0 0.00 0.26 0.00 87 1013.0
20260906084558 74 25 0.0 0.0 0.00 0.26 0.00 88 1012.9
20260906083112 74 0 0.0 3.0 0.00 0.26 0.00 88 1012.9
20260906081600 74 0 0.0 2.0 0.00 0.26 0.00 88 1013.0
20260906080127 74 358 0.0 2.0 0.00 0.26 0.00 88 1012.7
20260906074610 75 0 0.0 1.0 0.00 0.26 0.00 87 1012.8
20260906073109 75 0 0.0 0.0 0.00 0.26 0.00 87 1013.0
20260906071558 75 0 0.0 1.0 0.00 0.26 0.00 86 1013.0
20260906070058 75 0 0.0 0.0 0.00 0.26 0.00 85 1013.1
20260906064602 76 0 0.0 0.0 0.00 0.26 0.00 85 1013.0
20260906063103 76 0 0.0 1.0 0.00 0.26 0.00 84 1013.2
20260906061601 76 0 0.0 0.0 0.00 0.26 0.00 84 1013.2
20260906054559 77 0 0.0 0.0 0.00 0.26 0.00 83 1013.2
20260906053100 77 0 0.0 2.0 0.00 0.26 0.00 81 1013.2
20260906051605 78 0 0.0 1.0 0.00 0.26 0.00 80 1013.0
20260906050107 78 0 0.0 1.0 0.00 0.26 0.00 79 1013.0
20260906044600 79 0 0.0 0.0 0.00 0.26 0.00 78 1013.0
20260906043101 79 0 0.0 0.0 0.00 0.26 0.00 77 1012.9
20260906041603 79 0 0.0 1.0 0.00 0.26 0.00 77 1012.8
20260906034627 79 48 0.0 2.0 0.00 0.26 0.26 78 1012.9
20260906033055 79 0 0.0 0.0 0.00 0.26 0.26 77 1012.5
20260906031605 79 0 0.0 0.0 0.00 0.26 0.26 76 1012.4
20260906024555 79 0 0.0 0.0 0.00 0.26 0.26 75 1012.6
20260906023101 80 0 0.0 0.0 0.00 0.26 0.26 74 1012.7
20260906021603 80 0 0.0 0.0 0.00 0.26 0.26 73 1012.4
20260906020107 81 0 0.0 0.0 0.00 0.26 0.26 71 1012.0
20260906014559 81 0 0.0 0.0 0.00 0.26 0.26 69 1012.1
20260906013106 82 0 0.0 0.0 0.00 0.26 0.26 67 1011.6
20260906011603 82 0 0.0 0.0 0.00 0.26 0.26 66 1011.5
20260906010100 83 0 0.0 2.0 0.00 0.26 0.26 64 1011.5
20260906004558 83 0 0.0 0.0 0.00 0.26 0.26 62 1011.5
20260906003059 83 0 0.0 2.0 0.00 0.26 0.26 61 1011.6
20260906001600 84 127 1.0 3.0 0.00 0.26 0.26 60 1011.7
20260906000108 85 0 0.0 2.0 0.00 0.26 0.26 61 1012.0
20260905234618 86 0 0.0 4.0 0.00 0.26 0.26 60 1012.2
20260905233055 88 131 0.0 3.0 0.00 0.26 0.26 58 1012.2
20260905231605 90 89 0.0 2.0 0.00 0.26 0.26 57 1012.1
20260905230106 91 0 0.0 0.0 0.00 0.26 0.26 56 1011.7
20260905224556 92 0 0.0 0.0 0.00 0.26 0.26 54 1011.5
20260905223106 93 0 0.0 2.0 0.00 0.26 0.26 53 1011.3
20260905221556 92 277 0.0 1.0 0.00 0.26 0.26 54 1011.4
20260905220120 92 0 0.0 0.0 0.00 0.26 0.26 55 1011.4
20260905214606 92 0 1.0 4.0 0.00 0.26 0.26 53 1011.6
20260905213058 93 0 0.0 1.0 0.00 0.26 0.26 52 1011.7
20260905211600 93 285 0.0 4.0 0.00 0.26 0.26 51 1011.7
20260905210105 94 0 0.0 6.0 0.00 0.26 0.26 50 1011.7
20260905204558 93 288 4.0 7.0 0.00 0.26 0.26 49 1012.0
20260905203111 94 272 0.0 3.0 0.00 0.26 0.26 50 1012.1
20260905201559 94 39 2.0 5.0 0.00 0.26 0.26 48 1012.4
20260905200105 93 280 1.0 3.0 0.00 0.26 0.26 50 1012.7
20260905194600 92 0 1.0 6.0 0.00 0.26 0.26 51 1012.9
20260905193103 92 0 0.0 3.0 0.00 0.26 0.26 54 1013.0
20260905191557 91 0 0.0 4.0 0.00 0.26 0.26 52 1013.2
20260905184611 90 72 1.0 3.0 0.00 0.26 0.26 52 1013.5
20260905183103 90 0 1.0 3.0 0.00 0.26 0.26 54 1013.9
20260905181600 89 86 0.0 3.0 0.00 0.26 0.26 53 1014.1
20260905180108 89 0 1.0 3.0 0.00 0.26 0.26 55 1014.3
20260905174605 88 0 0.0 3.0 0.00 0.26 0.26 56 1014.2
20260905173058 88 117 1.0 5.0 0.00 0.26 0.26 57 1014.2
20260905171635 87 0 1.0 5.0 0.00 0.26 0.26 57 1014.3
20260905170106 87 0 0.0 2.0 0.00 0.26 0.26 59 1014.6
20260905164602 86 105 0.0 3.0 0.00 0.26 0.26 62 1014.9
20260905163057 85 0 2.0 5.0 0.00 0.26 0.26 62 1015.1
20260905161601 84 134 1.0 4.0 0.00 0.26 0.26 64 1015.1
20260905160110 83 216 1.0 4.0 0.00 0.26 0.26 68 1015.0
20260905154620 82 154 0.0 3.0 0.00 0.26 0.26 68 1015.1
20260905153104 81 0 1.0 3.0 0.00 0.26 0.26 72 1015.2
20260905151557 80 0 0.0 4.0 0.00 0.26 0.26 77 1015.2
20260905150107 78 20 1.0 3.0 0.00 0.26 0.26 80 1015.3
20260905144610 77 101 1.0 5.0 0.00 0.26 0.26 83 1015.5
20260905143105 76 98 1.0 5.0 0.00 0.26 0.26 85 1015.7
20260905141602 75 100 1.0 4.0 0.00 0.26 0.26 90 1015.6
20260905140105 74 89 1.0 3.0 0.00 0.26 0.26 93 1015.7
20260905134607 74 114 0.0 5.0 0.21 0.26 0.26 93 1016.0
20260905133106 73 297 0.0 7.0 0.22 0.26 0.26 94 1016.1
20260905131602 72 0 0.0 4.0 0.22 0.26 0.26 94 1016.2
20260905130059 72 18 0.0 8.0 0.22 0.26 0.26 92 1016.0
20260905124556 73 13 2.0 6.0 0.01 0.05 0.05 91 1016.1
20260905123106 73 10 0.0 2.0 0.04 0.04 0.04 91 1015.5
20260905121607 73 0 0.0 2.0 0.04 0.04 0.04 90 1015.2
20260905120100 74 95 1.0 2.0 0.04 0.04 0.04 89 1015.1
20260905114609 76 0 1.0 3.0 0.04 0.04 0.04 85 1015.0
20260905113056 77 0 0.0 1.0 0.00 0.00 0.00 81 1014.8
20260905111627 78 309 2.0 6.0 0.00 0.00 0.00 82 1014.6